Weather History for Everett, WA

Change the Weather History Date:

Tuesday, March 15, 2011

  Actual Average Record
Temperature  
Mean Temperature 48 °F -  
Max Temperature 53 °F 52 °F 63 °F (1961)
Min Temperature 42 °F 37 °F 30 °F (1956)
Degree Days  
Heating Degree Days 18    
Moisture  
Dew Point 41 °F    
Average Humidity 81    
Maximum Humidity 93    
Minimum Humidity 66    
Precipitation  
Precipitation 0.62 in - - ()
Sea Level Pressure  
Sea Level Pressure 29.65 in    
Wind  
Wind Speed 14 mph (South)    
Max Wind Speed 24 mph    
Max Gust Speed 34 mph    
Visibility 8 miles    
Events Rain , Thunderstorm    
Averages and records for this station are not official NWS values.
T = Trace of Precipitation, MM = Missing Value Source: NWS Daily Summary

Daily Weather History Graph

Daily Weather History Graph

Search for Another Location

Airport:

Trip Planner

Search our weather history database for the weather conditions in past years. The results will help you decide how hot, cold, wet, or windy it might be!

Date:

Astronomy

Mar. 15, 2011 Rise Set
Actual Time 7:22 AM PDT 7:14 PM PDT
Civil Twilight 6:51 AM PDT 7:45 PM PDT
Nautical Twilight 6:15 AM PDT 8:21 PM PDT
Astronomical Twilight 5:38 AM PDT 8:58 PM PDT
Moon 2:28 PM PDT (3/15) 4:53 AM PDT (3/15)
Length of Visible Light 12h 53m
Length of Day
11h 51m
Waxing Gibbous, 79% of the Moon is Illuminated
Mar 15
Waxing Gibbous
Mar 19
Full
Mar 26
Last Quarter
Apr 3
New
Apr 11
First Quarter

Hourly Weather History & Observations

Time (PDT) Temp. Windchill Dew Point Humidity Pressure Visibility Wind Dir Wind Speed Gust Speed Precip Events Conditions
12:53 AM 44.1 °F 39.5 °F 39.0 °F 82% 29.83 in 10.0 mi ESE 8.1 mph - N/A   Overcast
1:53 AM 46.0 °F 41.0 °F 37.9 °F 73% 29.80 in 10.0 mi SE 10.4 mph 21.9 mph 0.01 in Rain Light Rain
2:53 AM 45.0 °F 38.9 °F 39.9 °F 82% 29.78 in 5.0 mi SSE 12.7 mph - 0.05 in Rain Light Rain
3:53 AM 44.6 °F 40.2 °F 39.2 °F 81% 29.71 in 5.0 mi SE 8.1 mph 19.6 mph N/A Rain Light Rain
4:53 AM 45.0 °F 41.2 °F 41.0 °F 86% 29.70 in 10.0 mi Variable 6.9 mph - 0.02 in Rain Light Rain
5:53 AM 46.9 °F - 39.9 °F 77% 29.70 in 10.0 mi SSE 12.7 mph 18.4 mph 0.01 in   Overcast
6:53 AM 48.0 °F - 41.0 °F 77% 29.72 in 10.0 mi SSE 15.0 mph 23.0 mph 0.00 in   Overcast
7:53 AM 50.0 °F - 41.0 °F 71% 29.72 in 10.0 mi SSE 15.0 mph - 0.00 in   Overcast
8:53 AM 50.0 °F - 42.1 °F 74% 29.71 in 10.0 mi South 12.7 mph 21.9 mph N/A   Overcast
9:53 AM 51.1 °F - 42.1 °F 71% 29.69 in 10.0 mi South 16.1 mph 21.9 mph N/A   Mostly Cloudy
10:53 AM 52.0 °F - 41.0 °F 66% 29.67 in 10.0 mi South 15.0 mph 19.6 mph N/A   Scattered Clouds
11:46 AM 48.2 °F - 44.6 °F 87% 29.67 in 2.5 mi South 13.8 mph 24.2 mph 0.08 in Rain Rain
11:53 AM 48.9 °F - 44.1 °F 83% 29.69 in 3.0 mi SSW 13.8 mph 28.8 mph 0.08 in Rain Light Rain
12:01 PM 46.4 °F 39.8 °F 42.8 °F 87% 29.65 in 3.0 mi South 16.1 mph 23.0 mph N/A Rain Rain
12:53 PM 51.1 °F - 45.0 °F 80% 29.63 in 10.0 mi SSE 16.1 mph 25.3 mph 0.03 in   Overcast
1:53 PM 53.1 °F - 43.0 °F 69% 29.63 in 10.0 mi SW 19.6 mph 28.8 mph 0.01 in Rain Light Rain
1:59 PM 46.4 °F 40.7 °F 42.8 °F 87% 29.62 in 5.0 mi SW 12.7 mph 28.8 mph 0.02 in Rain Light Rain
2:04 PM 46.4 °F 40.1 °F 41.0 °F 81% 29.62 in 1.8 mi WSW 15.0 mph 21.9 mph N/A Rain Heavy Rain
2:12 PM 44.6 °F 36.9 °F 42.8 °F 93% 29.61 in 3.0 mi SW 18.4 mph 24.2 mph 0.14 in Rain , Thunderstorm Rain
2:29 PM 46.4 °F 40.7 °F 42.8 °F 87% 29.59 in 3.0 mi South 12.7 mph 23.0 mph 0.20 in Rain Light Rain
2:53 PM 48.9 °F - 42.1 °F 77% 29.60 in 10.0 mi SSW 10.4 mph - 0.20 in Rain Light Rain
3:11 PM 46.4 °F 38.1 °F 42.8 °F 87% 29.61 in 1.8 mi SSW 24.2 mph 33.4 mph 0.06 in Rain Rain
3:25 PM 46.4 °F 38.7 °F 41.0 °F 81% 29.60 in 10.0 mi South 20.7 mph 34.5 mph 0.11 in Rain Rain
3:53 PM 46.0 °F 39.3 °F 41.0 °F 83% 29.59 in 10.0 mi South 16.1 mph 28.8 mph 0.13 in   Overcast
4:00 PM 46.4 °F 39.2 °F 41.0 °F 81% 29.58 in 10.0 mi South 18.4 mph - N/A   Mostly Cloudy
4:21 PM 46.4 °F 39.0 °F 41.0 °F 81% 29.59 in 10.0 mi South 19.6 mph 32.2 mph N/A   Overcast
4:53 PM 46.9 °F - 41.0 °F 80% 29.60 in 10.0 mi South 19.6 mph 27.6 mph N/A   Overcast
5:00 PM 46.4 °F 39.0 °F 42.8 °F 87% 29.59 in 10.0 mi South 19.6 mph 27.6 mph N/A   Overcast
5:44 PM 46.4 °F 39.0 °F 41.0 °F 81% 29.59 in 10.0 mi South 19.6 mph 28.8 mph N/A   Overcast
5:53 PM 46.0 °F 39.3 °F 41.0 °F 83% 29.59 in 10.0 mi South 16.1 mph 27.6 mph N/A   Overcast
6:18 PM 44.6 °F 36.9 °F 39.2 °F 81% 29.60 in 9.0 mi South 18.4 mph 27.6 mph 0.00 in Rain Light Rain
6:29 PM 44.6 °F 36.4 °F 39.2 °F 81% 29.60 in 10.0 mi South 20.7 mph 33.4 mph 0.01 in   Overcast
6:53 PM 44.1 °F 35.7 °F 39.9 °F 85% 29.61 in 10.0 mi South 20.7 mph 31.1 mph 0.01 in   Overcast
7:53 PM 44.6 °F 36.1 °F 39.2 °F 81% 29.64 in 10.0 mi South 21.9 mph 29.9 mph N/A Rain Light Rain
8:48 PM 44.6 °F 36.6 °F 39.2 °F 81% 29.65 in 10.0 mi South 19.6 mph 26.5 mph 0.02 in Rain Light Rain
8:53 PM 44.6 °F 37.2 °F 39.2 °F 81% 29.65 in 10.0 mi South 17.3 mph 26.5 mph N/A Rain Light Rain
9:53 PM 44.1 °F 36.5 °F 39.0 °F 82% 29.67 in 10.0 mi South 17.3 mph 26.5 mph 0.00 in Rain Light Rain
10:48 PM 42.8 °F 34.0 °F 39.2 °F 87% 29.68 in 5.0 mi South 20.7 mph 28.8 mph 0.05 in Rain Rain
10:53 PM 43.0 °F 35.1 °F 39.0 °F 86% 29.68 in 5.0 mi South 17.3 mph 26.5 mph 0.06 in Rain Rain
11:53 PM 43.0 °F 34.5 °F 37.9 °F 82% 29.70 in 10.0 mi South 19.6 mph 28.8 mph 0.01 in Rain Light Rain